KG1ZR Weather Reports


time (UTC)temp
C
wind
direction
speed
KPH
gust
KPH
rain 1hr
cm
rain 24hr
cm
rain mn
cm
humidity
%
barometer
mb
20260507095429 6 325 1.6 3.2 0.00 1.19 0.18 61 1004.3
20260507094428 6 244 0.0 1.6 0.00 1.19 0.18 61 1004.3
20260507093429 6 244 0.0 3.2 0.00 1.19 0.18 61 1004.4
20260507092429 6 244 0.0 3.2 0.00 1.19 0.18 61 1004.5
20260507091428 6 244 0.0 3.2 0.03 1.19 0.18 61 1004.4
20260507090429 6 244 0.0 3.2 0.03 1.19 0.18 61 1004.7
20260507085429 6 244 0.0 3.2 0.03 1.19 0.18 61 1004.9
20260507084428 7 257 1.6 4.8 0.03 1.19 0.18 61 1004.8
20260507083429 7 281 1.6 4.8 0.03 1.19 0.18 61 1004.3
20260507083352 7 320 1.6 4.8 0.03 1.19 0.18 60 1004.1
20260507081429 7 302 0.0 4.8 0.00 1.17 0.15 60 1004.2
20260507080429 7 302 3.2 8.0 0.00 1.17 0.15 60 1004.1
20260507075427 8 316 3.2 8.0 0.00 1.17 0.15 60 1004.2
20260507074427 8 331 3.2 8.0 0.00 1.17 0.15 59 1004.3
20260507073426 8 284 1.6 4.8 0.00 1.17 0.15 59 1004.4
20260507072424 8 290 0.0 3.2 0.00 1.17 0.15 59 1004.2
20260507071423 8 290 0.0 3.2 0.00 1.17 0.15 59 1004.0
20260507070901 8 290 0.0 1.6 0.00 1.17 0.15 59 1004.0
20260507065420 8 290 0.0 3.2 0.00 1.17 0.15 59 1003.7
20260507064421 9 284 1.6 3.2 0.00 1.17 0.15 59 1003.6
20260507063421 9 284 0.0 3.2 0.00 1.17 0.15 59 1003.5
20260507062421 9 284 0.0 3.2 0.00 1.17 0.15 58 1003.4
20260507061421 9 284 0.0 4.8 0.00 1.17 0.15 58 1003.5
20260507060419 9 0 0.0 3.2 0.03 1.17 0.15 58 1003.2
20260507055418 9 0 0.0 3.2 0.03 1.17 0.15 58 1003.1
20260507054419 9 340 0.0 3.2 0.05 1.17 0.15 58 1003.0
20260507053419 10 311 0.0 6.4 0.10 1.17 0.15 58 1003.1
20260507052416 10 315 1.6 6.4 0.13 1.17 0.15 58 1003.4
20260507051417 10 331 1.6 8.0 0.13 1.17 0.13 58 1003.4
20260507050415 10 313 3.2 11.3 0.13 1.14 0.13 57 1003.4
20260507045856 10 279 4.8 16.1 0.18 1.14 0.13 57 1003.6
20260507044406 10 335 4.8 16.1 0.25 1.12 0.10 57 1003.3
20260507043407 11 302 6.4 16.1 0.20 1.07 0.05 57 1003.5
20260507042407 11 279 3.2 9.7 0.23 1.04 0.03 57 1003.2
20260507041407 11 254 3.2 9.7 0.25 1.04 0.03 57 1003.2
20260507040407 11 284 4.8 17.7 0.23 1.02 0.00 56 1003.2
20260507035405 11 347 6.4 17.7 0.18 0.97 0.97 56 1003.1
20260507034405 12 279 4.8 12.9 0.10 0.86 0.86 56 1003.1
20260507033406 12 336 4.8 14.5 0.10 0.86 0.86 56 1002.9
20260507032406 12 272 3.2 9.7 0.05 0.81 0.81 56 1002.8
20260507031403 12 205 3.2 9.7 0.05 0.79 0.79 56 1002.7
20260507030404 12 222 3.2 12.9 0.08 0.79 0.79 56 1002.3
20260507025403 11 229 4.8 12.9 0.08 0.79 0.79 56 1002.4
20260507024404 11 208 3.2 12.9 0.05 0.76 0.76 56 1002.6
20260507023403 11 237 3.2 12.9 0.08 0.76 0.76 56 1002.6
20260507022404 11 192 4.8 17.7 0.08 0.76 0.76 56 1002.6
20260507021404 11 186 8.0 20.9 0.05 0.74 0.74 56 1002.5
20260507020404 11 189 8.0 20.9 0.03 0.71 0.71 56 1002.6
20260507015404 11 184 8.0 14.5 0.03 0.71 0.71 56 1002.5
20260507014403 12 196 9.7 17.7 0.03 0.71 0.71 56 1002.6
20260507013403 12 142 9.7 19.3 0.00 0.69 0.69 56 1002.6
20260507012403 12 201 8.0 20.9 0.00 0.69 0.69 56 1002.6
20260507011404 12 235 9.7 20.9 0.00 0.69 0.69 56 1002.8
20260507010401 12 157 11.3 25.7 0.00 0.69 0.69 56 1002.8
20260507005401 12 180 9.7 25.7 0.00 0.69 0.69 56 1002.9
20260507004401 12 208 9.7 27.4 0.00 0.69 0.69 56 1003.0
20260507003402 12 227 9.7 27.4 0.00 0.69 0.69 56 1003.0
20260507002401 12 234 9.7 30.6 0.00 0.69 0.69 56 1003.0
20260507001842 12 159 9.7 30.6 0.00 0.69 0.69 56 1003.0
20260507000405 12 161 11.3 27.4 0.00 0.69 0.69 56 1003.1
20260506235402 12 173 11.3 22.5 0.00 0.69 0.69 56 1003.0
20260506234402 12 120 9.7 20.9 0.00 0.69 0.69 57 1003.3
20260506233401 12 223 9.7 24.1 0.00 0.69 0.69 57 1003.3
20260506233311 12 197 9.7 22.5 0.00 0.69 0.69 57 1003.4
20260506231403 12 200 8.0 20.9 0.03 0.71 0.69 58 1003.5
20260506231322 12 202 8.0 14.5 0.03 0.71 0.69 58 1003.6
20260506225402 12 177 8.0 19.3 0.05 0.71 0.69 58 1003.7
20260506224401 12 153 8.0 19.3 0.05 0.71 0.69 58 1003.8
20260506223401 12 191 8.0 17.7 0.08 0.71 0.69 58 1003.8
20260506222402 12 163 8.0 17.7 0.08 0.71 0.69 58 1004.0
20260506221401 12 236 8.0 16.1 0.08 0.69 0.66 58 1004.0
20260506220401 12 167 8.0 19.3 0.10 0.69 0.66 58 1004.2
20260506215402 12 188 6.4 19.3 0.10 0.66 0.64 59 1004.1
20260506214401 12 191 8.0 24.1 0.13 0.66 0.64 59 1004.3
20260506213401 12 202 11.3 24.1 0.13 0.64 0.61 59 1004.2
20260506212842 12 198 8.0 19.3 0.15 0.64 0.61 59 1004.2
20260506211403 12 228 8.0 19.3 0.15 0.61 0.58 60 1004.2
20260506210402 12 186 9.7 19.3 0.13 0.58 0.56 60 1004.1
20260506205401 12 145 8.0 22.5 0.13 0.56 0.53 61 1004.3
20260506204401 12 158 6.4 22.5 0.15 0.53 0.51 61 1004.3
20260506203401 12 194 6.4 17.7 0.15 0.51 0.48 62 1004.4
20260506202840 12 167 6.4 16.1 0.15 0.48 0.46 62 1004.7
20260506201401 12 213 8.0 14.5 0.15 0.46 0.43 63 1004.7
20260506200401 12 136 8.0 20.9 0.30 0.46 0.41 64 1004.5
20260506195401 12 194 9.7 29.0 0.33 0.43 0.41 65 1004.7
20260506194401 12 155 9.7 29.0 0.30 0.38 0.36 66 1004.8
20260506193401 12 147 6.4 20.9 0.30 0.36 0.33 67 1004.9
20260506192401 12 191 6.4 14.5 0.30 0.33 0.30 68 1005.1
20260506191400 12 190 8.0 14.5 0.28 0.30 0.28 70 1005.2
20260506190402 12 193 8.0 16.1 0.13 0.15 0.10 73 1005.3
20260506185401 13 167 8.0 17.7 0.08 0.10 0.08 74 1005.1
20260506184400 13 184 4.8 20.9 0.05 0.08 0.05 76 1005.0
20260506183851 14 198 6.4 20.9 0.03 0.05 0.03 77 1004.9
20260506182401 15 178 4.8 16.1 0.00 0.03 0.00 77 1005.0
20260506181401 15 198 6.4 20.9 0.00 0.03 0.00 78 1005.1
20260506180401 15 212 9.7 20.9 0.00 0.03 0.00 78 1005.1
20260506175401 15 146 6.4 17.7 0.00 0.03 0.00 78 1005.2
20260506174401 15 128 6.4 17.7 0.00 0.03 0.00 78 1005.4
20260506173401 15 178 6.4 17.7 0.00 0.03 0.00 78 1005.5
20260506172843 15 164 6.4 19.3 0.00 0.03 0.00 78 1005.7
20260506171401 15 216 8.0 17.7 0.00 0.03 0.00 77 1006.1
20260506170837 15 117 6.4 14.5 0.00 0.03 0.00 77 1006.2
20260506165401 15 196 6.4 14.5 0.00 0.03 0.00 77 1006.4
20260506164400 15 211 4.8 11.3 0.00 0.03 0.00 78 1006.5
20260506163401 15 188 6.4 16.1 0.00 0.03 0.00 78 1006.8
20260506162845 15 199 4.8 16.1 0.00 0.03 0.00 77 1006.8
20260506161400 15 180 6.4 16.1 0.00 0.03 0.00 78 1007.1
20260506160401 15 171 6.4 14.5 0.00 0.03 0.00 78 1007.2
20260506155401 15 125 6.4 12.9 0.00 0.03 0.00 77 1007.4
20260506154401 15 152 6.4 17.7 0.00 0.03 0.00 77 1007.4
20260506153839 15 95 8.0 17.7 0.00 0.03 0.00 77 1007.3
20260506152842 15 181 6.4 17.7 0.00 0.03 0.00 78 1007.3
20260506151401 15 188 4.8 17.7 0.00 0.03 0.00 78 1007.1
20260506151327 15 143 6.4 14.5 0.00 0.03 0.00 78 1007.2
20260506145401 15 202 6.4 14.5 0.00 0.03 0.00 78 1007.1
20260506144844 15 124 6.4 16.1 0.00 0.03 0.00 77 1006.8
20260506143402 15 131 4.8 12.9 0.00 0.03 0.00 77 1007.0
20260506142842 14 80 4.8 12.9 0.00 0.03 0.00 78 1007.4
20260506141401 14 185 6.4 14.5 0.00 0.03 0.00 78 1007.6
20260506140840 14 167 4.8 14.5 0.00 0.03 0.00 78 1007.7
20260506135401 14 198 4.8 11.3 0.00 0.03 0.00 78 1007.6
20260506134400 14 210 4.8 11.3 0.00 0.03 0.00 78 1007.6
20260506133400 13 147 3.2 9.7 0.00 0.03 0.00 78 1007.6
20260506132401 13 177 4.8 8.0 0.00 0.03 0.00 78 1007.7
20260506131401 14 138 3.2 6.4 0.00 0.03 0.00 78 1007.4
20260506130401 13 103 3.2 6.4 0.00 0.03 0.00 77 1007.6
20260506125401 13 130 3.2 6.4 0.00 0.03 0.00 78 1007.5
20260506124401 13 48 3.2 6.4 0.00 0.03 0.00 77 1007.8
20260506123400 13 75 1.6 6.4 0.00 0.03 0.00 78 1007.7
20260506122838 12 172 3.2 9.7 0.00 0.03 0.00 77 1008.0
20260506121401 12 119 3.2 11.3 0.00 0.03 0.00 77 1008.3
20260506120401 12 281 3.2 12.9 0.00 0.03 0.00 77 1008.2
20260506115400 12 78 3.2 11.3 0.00 0.03 0.00 77 1008.1
20260506114401 12 202 3.2 8.0 0.00 0.03 0.00 77 1008.5
20260506113401 11 144 3.2 8.0 0.00 0.03 0.00 77 1008.5
20260506112402 11 161 1.6 8.0 0.00 0.03 0.00 77 1008.6
20260506111401 11 205 0.0 3.2 0.00 0.03 0.00 76 1008.3
20260506110401 11 205 0.0 3.2 0.00 0.03 0.00 76 1008.5
20260506105401 11 205 0.0 3.2 0.00 0.03 0.00 76 1008.2
20260506104401 11 53 0.0 1.6 0.00 0.03 0.00 76 1008.2
20260506103401 11 53 0.0 3.2 0.00 0.03 0.00 75 1008.1
20260506102402 10 45 1.6 9.7 0.00 0.03 0.00 75 1008.3
20260506101401 10 140 1.6 9.7 0.00 0.03 0.00 75 1008.4
20260506100401 10 24 1.6 9.7 0.00 0.03 0.00 75 1008.5